Regional Weather Roundup
Issued by NWS

Home | Current Version | Previous Version | Graphics & Text | Print | Product List | Glossary On
Versions: 1 2 3 4 5 6 7 8 9 10 11 12 13 14 15 16 17 18 19 20 21 22 23 24 25 26 27 28 29 30 31 32 33 34 35 36 37 38 39 40 41 42 43 44 45 46 47 48 49 50
000
ASUS43 KFSD 292202
RWRSD

WEATHER ROUNDUP FOR SOUTH DAKOTA
NATIONAL WEATHER SERVICE SIOUX FALLS SD
500 PM CDT MON MAY 29 2017

NOTE: "FAIR" INDICATES FEW OR NO CLOUDS BELOW 12,000 FEET WITH NO
SIGNIFICANT WEATHER AND/OR OBSTRUCTIONS TO VISIBILITY.


SDZ001>005-009-010-012>017-292300-
NORTHWEST AND NORTH CENTRAL SOUTH DAKOTA

CITY           SKY/WX    TMP DP  RH WIND       PRES   REMARKS
BUFFALO          N/A     68  32  26 NW28G37   30.05S
FAITH            N/A     66  33  29 NW16G28   30.07F
MOBRIDGE       PTSUNNY   66  35  31 N18G26    30.00F
$$

SDZ012>016-024>037-041>051-057-063-072>074-292300-
SOUTHWEST AND SOUTH CENTRAL SOUTH DAKOTA

CITY           SKY/WX    TMP DP  RH WIND       PRES   REMARKS
RAPID CTY ARPT SUNNY     71  29  21 N26G39    30.11F
PIERRE         MOSUNNY   71  33  24 NW24G31   30.02F
CUSTER         SUNNY     61  19  19 W5G16     30.18S
ELLSWORTH AFB  SUNNY     69  30  23 NW25      30.10F
PHILIP         MOSUNNY   71  32  23 N18G28    30.06F
PINE RIDGE     SUNNY     68  38  33 N10       30.12F
SPEARFISH      FAIR      64  30  27 NW15G25   30.15F
WINNER         CLOUDY    71  38  29 NW18G28   30.04F
$$

SDZ004>011-016>023-039-040-292300-
NORTHEAST SOUTH DAKOTA

CITY           SKY/WX    TMP DP  RH WIND       PRES   REMARKS
ABERDEEN       PTSUNNY   65  38  36 N20G26    29.98F
WATERTOWN      CLOUDY    57  49  74 NW12      29.96S
BROOKINGS      MOSUNNY   61  46  57 NW17G23   29.97F
SISSETON         N/A     62  44  51 N22       29.92S
$$

SDZ017-020-022-023-036>040-048>070-292300-
SOUTHEAST SOUTH DAKOTA

CITY           SKY/WX    TMP DP  RH WIND       PRES   REMARKS
SIOUX FALLS    PTSUNNY   66  47  50 NW23G35   29.98S
HURON          CLOUDY    65  45  48 NW12      29.99F
CHAMBERLAIN    CLOUDY    70  40  33 NW14G20   30.03S
MITCHELL       CLOUDY    65  42  43 NW16      30.02F
YANKTON          N/A     67  43  41 NW21G28   30.02S
$$

ABBREVIATIONS USED IN REMARKS
   TC - TEMPERATURE IN CELSIUS
  WCI - WIND CHILL INDEX
   HX - HEAT INDEX
  VSB - VISIBILITY





USA.gov is the U.S. government's official web portal to all federal, state and local government web resources and services.